カタログに戻る

STARLINK-2471

運用中通信VLEO
NORAD 48129·PAYLOAD·🇺🇸 United States

打ち上げ Apr 7, 2021 から Cape Canaveral Space Force Station

Loading…

次のパス (今後24時間)

TLE

最新Source: CelesTrak SupGP

元期: Sep 15, 2026, 02:14 UTC

1 48129C 21027AP  26258.09354167  .00030502  00000+0  98046-3 0  2581
2 48129  53.1613   4.1245 0001281  85.8284 211.0733 15.31700020    15

AllMySatでSTARLINK-2471をリアルタイム追跡

Download on the App Store